sat.trackr.live / text

‹ back to catalog

HULIANWANG DIGUI-99

NORAD 66415 · 2025-258D

PAYLOAD ACTIVE UNKNOWN

§ Identity

Operator
Country
PRC
Launch date
2025-11-10
Launch site
WSC
Launch vehicle
Mass (kg)
RCS (m²)

External: N2YO · Heavens-Above · Gunter

§ Orbital elements

Epoch: 2026-09-20T03:34:10.124256Z

Period
108.33 min
Inclination
50.0058°
Eccentricity
0.0000104
Mean motion
13.29330413 rev/d
Perigee alt
1,149.2 km
Apogee alt
1,149.4 km
Semi-major
7,527.4 km
B*
8.0087e-5
RAAN
314.9878°
Arg perigee
129.0259°
Mean anomaly
231.0622°
Rev number
4,235

§ Raw data

HULIANWANG DIGUI-991 66415U 25258D   26263.14872829 -.00000087  00000+0  80087-4 0  99962 66415  50.0058 314.9878 0000104 129.0259 231.0622 13.29330413 42354

JSON: /api/v1/satellites/66415 · /tle

For live sub-satellite position, see the globe view (requires WebGL).

§ Visibility from observer

Set your observer location to see the next 7 days of passes ≥ 10°. The values pass through the URL so the page stays shareable.

No JS? Fill the form by hand. The geolocation button needs JavaScript.